UAE393 VVTS-OMDB

Flight info

Callsign UAE393
Flight time N/A
Altitude 38000
Route SAPEN5A SAPEN R468 ELMOP P629 MUBUS M633 TANEK L301 SADUS/N0486F400 L301 RAGMA N571 VUSET A454 PASOV B540 KUPMA/N0457F240 B540 MIVEK P574 IMPED
Aircraft A359/H-SDE2E3GHIJ3J4J5LM1ORWXY/LB1D1

Departure

Time N/A
Airport Tan Son Nhat International Airport (VVTS)

Arrival

Time 2026-04-24 23:21
Airport Dubai International Airport (OMDB)
Time Latitude Longitude Altitude Speed Heading
2026-04-24 21:38 21.51678 67.79975 39872 ft 473 kts 294°
2026-04-24 21:38 21.53056 67.76598 39872 ft 473 kts 294°
2026-04-24 21:39 21.55700 67.70113 39869 ft 472 kts 294°
2026-04-24 21:39 21.58321 67.63674 39870 ft 472 kts 294°
2026-04-24 21:40 21.60951 67.57207 39869 ft 472 kts 294°
2026-04-24 21:40 21.63575 67.50744 39870 ft 471 kts 294°
2026-04-24 21:41 21.66193 67.44287 39871 ft 471 kts 294°
2026-04-24 21:41 21.68812 67.37820 39866 ft 471 kts 294°
2026-04-24 21:42 21.71424 67.31363 39869 ft 471 kts 294°
2026-04-24 21:42 21.74021 67.24933 39872 ft 471 kts 294°
2026-04-24 21:43 21.76626 67.18475 39869 ft 470 kts 294°
2026-04-24 21:43 21.79229 67.12012 39872 ft 469 kts 294°
2026-04-24 21:44 21.81824 67.05563 39869 ft 469 kts 294°
2026-04-24 21:44 21.84398 66.99157 39873 ft 469 kts 294°
2026-04-24 21:45 21.86988 66.92702 39874 ft 469 kts 294°
2026-04-24 21:45 21.89561 66.86281 39868 ft 468 kts 294°
2026-04-24 21:46 21.92139 66.79839 39871 ft 467 kts 294°
2026-04-24 21:46 21.94709 66.73407 39872 ft 467 kts 294°
2026-04-24 21:47 21.97278 66.66971 39868 ft 467 kts 294°
2026-04-24 21:47 21.99849 66.60520 39876 ft 467 kts 294°
2026-04-24 21:48 22.02398 66.54119 39868 ft 467 kts 294°
2026-04-24 21:48 22.04951 66.47697 39869 ft 466 kts 294°
2026-04-24 21:49 22.07500 66.41277 39868 ft 466 kts 294°
2026-04-24 21:49 22.10053 66.34840 39872 ft 466 kts 294°
2026-04-24 21:50 22.12586 66.28443 39870 ft 466 kts 294°
2026-04-24 21:50 22.15132 66.22007 39868 ft 466 kts 294°
2026-04-24 21:51 22.17673 66.15573 39872 ft 465 kts 294°
2026-04-24 21:51 22.20198 66.09172 39872 ft 466 kts 294°
2026-04-24 21:52 22.22738 66.02724 39870 ft 465 kts 294°
2026-04-24 21:52 22.25266 65.96298 39871 ft 465 kts 294°
2026-04-24 21:53 22.27790 65.89871 39866 ft 465 kts 294°
2026-04-24 21:53 22.30299 65.83476 39868 ft 464 kts 294°
2026-04-24 21:54 22.32832 65.77010 39870 ft 464 kts 294°
2026-04-24 21:54 22.35350 65.70575 39870 ft 464 kts 294°
2026-04-24 21:55 22.37851 65.64174 39869 ft 464 kts 294°
2026-04-24 21:55 22.40360 65.57741 39871 ft 464 kts 294°
2026-04-24 21:56 22.42867 65.51307 39874 ft 463 kts 294°
2026-04-24 21:56 22.45349 65.44929 39868 ft 462 kts 294°
2026-04-24 21:57 22.47842 65.38513 39869 ft 462 kts 294°
2026-04-24 21:57 22.50331 65.32098 39868 ft 462 kts 294°
2026-04-24 21:58 22.52803 65.25718 39872 ft 462 kts 294°
2026-04-24 21:58 22.55288 65.19297 39865 ft 462 kts 294°
2026-04-24 21:59 22.57754 65.12914 39867 ft 462 kts 294°
2026-04-24 21:59 22.60229 65.06502 39870 ft 462 kts 294°
2026-04-24 22:00 22.62704 65.00079 39868 ft 462 kts 294°
2026-04-24 22:00 22.65173 64.93664 39869 ft 461 kts 294°
2026-04-24 22:01 22.67635 64.87256 39864 ft 461 kts 294°
2026-04-24 22:01 22.70083 64.80877 39864 ft 461 kts 294°
2026-04-24 22:02 22.72543 64.74456 39864 ft 461 kts 293°
2026-04-24 22:02 22.74999 64.68041 39865 ft 461 kts 293°
2026-04-24 22:03 22.77439 64.61655 39864 ft 461 kts 293°
2026-04-24 22:03 22.79891 64.55229 39866 ft 461 kts 293°
2026-04-24 22:04 22.82342 64.48798 39865 ft 461 kts 293°
2026-04-24 22:04 22.84770 64.42417 39860 ft 461 kts 293°
2026-04-24 22:05 22.87216 64.35979 39859 ft 460 kts 293°
2026-04-24 22:05 22.89656 64.29550 39862 ft 461 kts 293°
2026-04-24 22:06 22.92082 64.23146 39862 ft 461 kts 293°
2026-04-24 22:06 22.94518 64.16710 39857 ft 461 kts 293°
2026-04-24 22:07 22.96954 64.10263 39858 ft 461 kts 293°
2026-04-24 22:07 22.99369 64.03861 39855 ft 461 kts 293°
2026-04-24 22:08 23.01802 63.97403 39856 ft 461 kts 293°
2026-04-24 22:08 23.04230 63.90950 39856 ft 461 kts 293°
2026-04-24 22:09 23.05999 63.84292 39859 ft 463 kts 280°
2026-04-24 22:09 23.06868 63.77337 39853 ft 464 kts 278°
2026-04-24 22:10 23.07579 63.70356 39854 ft 465 kts 278°
2026-04-24 22:10 23.08269 63.63418 39855 ft 465 kts 278°
2026-04-24 22:11 23.08980 63.56417 39854 ft 465 kts 278°
2026-04-24 22:11 23.09697 63.49429 39855 ft 465 kts 278°
2026-04-24 22:12 23.10408 63.42494 39848 ft 465 kts 278°
2026-04-24 22:12 23.11120 63.35504 39853 ft 465 kts 278°
2026-04-24 22:13 23.11829 63.28516 39852 ft 465 kts 278°
2026-04-24 22:13 23.12416 63.22708 39855 ft 465 kts 278°
2026-04-24 22:14 23.13232 63.14588 39849 ft 465 kts 278°
2026-04-24 22:14 23.13818 63.08734 39848 ft 464 kts 278°
2026-04-24 22:15 23.14509 63.01805 39849 ft 464 kts 278°
2026-04-24 22:15 23.15203 62.94810 39851 ft 464 kts 277°
2026-04-24 22:16 23.15892 62.87831 39844 ft 463 kts 277°
2026-04-24 22:16 23.16573 62.80909 39842 ft 463 kts 277°
2026-04-24 22:17 23.17257 62.73923 39847 ft 463 kts 277°
2026-04-24 22:17 23.17936 62.66953 39843 ft 463 kts 277°
2026-04-24 22:18 23.18608 62.60026 39846 ft 463 kts 277°
2026-04-24 22:18 23.19281 62.53052 39848 ft 463 kts 277°
2026-04-24 22:19 23.19950 62.46082 39845 ft 463 kts 277°
2026-04-24 22:19 23.20613 62.39150 39845 ft 463 kts 277°
2026-04-24 22:20 23.21278 62.32163 39845 ft 463 kts 277°
2026-04-24 22:20 23.21941 62.25172 39843 ft 463 kts 277°
2026-04-24 22:21 23.22598 62.18200 39845 ft 463 kts 277°
2026-04-24 22:21 23.23247 62.11279 39843 ft 462 kts 277°
2026-04-24 22:22 23.23897 62.04319 39843 ft 462 kts 277°
2026-04-24 22:22 23.24546 61.97345 39843 ft 462 kts 277°
2026-04-24 22:23 23.25186 61.90425 39839 ft 462 kts 277°
2026-04-24 22:23 23.25827 61.83461 39843 ft 462 kts 277°
2026-04-24 22:24 23.26465 61.76490 39842 ft 462 kts 277°
2026-04-24 22:24 23.27095 61.69575 39843 ft 462 kts 277°
2026-04-24 22:25 23.27727 61.62609 39840 ft 462 kts 277°
2026-04-24 22:25 23.28355 61.55651 39840 ft 462 kts 277°
2026-04-24 22:26 23.28980 61.48689 39840 ft 462 kts 277°
2026-04-24 22:26 23.29598 61.41772 39841 ft 462 kts 277°
2026-04-24 22:27 23.30217 61.34809 39840 ft 462 kts 277°
2026-04-24 22:27 23.30833 61.27842 39839 ft 461 kts 277°
2026-04-24 22:28 23.31445 61.20895 39839 ft 460 kts 277°
2026-04-24 22:28 23.32110 61.13993 39840 ft 460 kts 278°
2026-04-24 22:29 23.33473 61.03647 39840 ft 460 kts 279°
2026-04-24 22:29 23.34375 60.96762 39842 ft 459 kts 279°
2026-04-24 22:30 23.35236 60.89935 39840 ft 457 kts 279°
2026-04-24 22:30 23.36089 60.83059 39842 ft 457 kts 279°
2026-04-24 22:31 23.36937 60.76196 39840 ft 457 kts 279°
2026-04-24 22:31 23.37784 60.69324 39839 ft 458 kts 279°
2026-04-24 22:32 23.39186 60.62618 39840 ft 456 kts 290°
2026-04-24 22:32 23.41419 60.56143 39838 ft 456 kts 292°
2026-04-24 22:33 23.43786 60.49711 39837 ft 456 kts 292°
2026-04-24 22:33 23.46146 60.43325 39836 ft 457 kts 292°
2026-04-24 22:34 23.48502 60.36898 39837 ft 457 kts 292°
2026-04-24 22:34 23.50847 60.30463 39837 ft 456 kts 292°
2026-04-24 22:35 23.53187 60.24027 39834 ft 456 kts 292°
2026-04-24 22:35 23.55524 60.17588 39834 ft 456 kts 292°
2026-04-24 22:36 23.57844 60.11192 39834 ft 456 kts 292°
2026-04-24 22:36 23.60176 60.04751 39834 ft 456 kts 292°
2026-04-24 22:37 23.62507 59.98304 39834 ft 456 kts 292°
2026-04-24 22:37 23.64819 59.91900 39837 ft 456 kts 292°
2026-04-24 22:38 23.67146 59.85445 39842 ft 456 kts 292°
2026-04-24 22:38 23.69448 59.79048 39837 ft 455 kts 292°
2026-04-24 22:39 23.71758 59.72620 39837 ft 455 kts 292°
2026-04-24 22:39 23.74067 59.66185 39835 ft 455 kts 292°
2026-04-24 22:40 23.76373 59.59751 39832 ft 455 kts 292°
2026-04-24 22:40 23.78677 59.53311 39835 ft 454 kts 292°
2026-04-24 22:41 23.80962 59.46914 39834 ft 454 kts 292°
2026-04-24 22:41 23.83261 59.40469 39835 ft 454 kts 292°
2026-04-24 22:42 23.85539 59.34072 39837 ft 454 kts 291°
2026-04-24 22:42 23.87827 59.27640 39831 ft 453 kts 291°
2026-04-24 22:43 23.90103 59.21228 39836 ft 452 kts 291°
2026-04-24 22:43 23.92380 59.14808 39835 ft 452 kts 291°
2026-04-24 22:44 23.94565 59.08406 39836 ft 452 kts 290°
2026-04-24 22:44 23.96621 59.01890 39839 ft 452 kts 289°
2026-04-24 22:45 23.98653 58.95425 39832 ft 447 kts 289°
2026-04-24 22:45 24.00680 58.89052 39844 ft 445 kts 289°
2026-04-24 22:46 24.02737 58.82618 39833 ft 445 kts 289°
2026-04-24 22:46 24.04768 58.76261 39831 ft 445 kts 289°
2026-04-24 22:47 24.06808 58.69861 39835 ft 445 kts 289°
2026-04-24 22:47 24.08846 58.63454 39831 ft 445 kts 289°
2026-04-24 22:48 24.10880 58.57051 39838 ft 445 kts 289°
2026-04-24 22:48 24.12899 58.50689 39829 ft 445 kts 289°
2026-04-24 22:49 24.14925 58.44285 39836 ft 444 kts 289°
2026-04-24 22:49 24.16941 58.37904 39837 ft 443 kts 289°
2026-04-24 22:50 24.18955 58.31523 39837 ft 443 kts 289°
2026-04-24 22:50 24.20965 58.25143 39837 ft 443 kts 289°
2026-04-24 22:51 24.22962 58.18791 39836 ft 443 kts 289°
2026-04-24 22:51 24.24965 58.12412 39837 ft 441 kts 289°
2026-04-24 22:52 24.26959 58.06053 39834 ft 441 kts 289°
2026-04-24 22:52 24.28940 57.99724 39834 ft 441 kts 289°
2026-04-24 22:53 24.30931 57.93350 39834 ft 440 kts 289°
2026-04-24 22:53 24.32901 57.87037 39835 ft 440 kts 289°
2026-04-24 22:54 24.34649 57.81423 39831 ft 439 kts 289°
2026-04-24 22:54 24.35524 57.78610 39831 ft 439 kts 289°
2026-04-24 22:55 24.37164 57.73335 39832 ft 439 kts 289°
2026-04-24 22:55 24.39455 57.65950 39834 ft 439 kts 289°
2026-04-24 22:56 24.41101 57.60637 39834 ft 439 kts 289°
2026-04-24 22:56 24.43054 57.54322 39517 ft 438 kts 289°
2026-04-24 22:57 24.44035 57.51148 39286 ft 439 kts 289°
2026-04-24 22:57 24.45014 57.47980 39055 ft 439 kts 289°
2026-04-24 22:57 24.45995 57.44799 38832 ft 439 kts 289°
2026-04-24 22:57 24.46974 57.41620 38609 ft 440 kts 289°
2026-04-24 22:58 24.47941 57.38478 38364 ft 440 kts 289°
2026-04-24 22:58 24.48917 57.35305 37883 ft 436 kts 289°
2026-04-24 22:58 24.49887 57.32150 37212 ft 435 kts 289°
2026-04-24 22:58 24.50853 57.29005 36529 ft 434 kts 288°
2026-04-24 22:59 24.51819 57.25858 35841 ft 434 kts 288°
2026-04-24 22:59 24.52786 57.22706 35127 ft 436 kts 288°
2026-04-24 22:59 24.54727 57.16365 33458 ft 445 kts 287°
2026-04-24 23:00 24.55718 57.13126 32544 ft 449 kts 287°
2026-04-24 23:00 24.56716 57.09858 31648 ft 453 kts 286°
2026-04-24 23:00 24.57722 57.06557 30723 ft 458 kts 286°
2026-04-24 23:00 24.58740 57.03210 29848 ft 463 kts 285°
2026-04-24 23:01 24.59759 56.99857 29137 ft 461 kts 286°
2026-04-24 23:01 24.60776 56.96524 28454 ft 457 kts 286°
2026-04-24 23:01 24.61787 56.93212 27800 ft 454 kts 286°
2026-04-24 23:01 24.62788 56.89923 27117 ft 452 kts 286°
2026-04-24 23:02 24.63784 56.86653 26451 ft 449 kts 287°
2026-04-24 23:02 24.65065 56.83526 25806 ft 448 kts 296°
2026-04-24 23:02 24.66570 56.80534 25156 ft 446 kts 297°
2026-04-24 23:02 24.68123 56.77632 24490 ft 444 kts 298°
2026-04-24 23:03 24.69722 56.74737 23842 ft 442 kts 299°
2026-04-24 23:03 24.71331 56.71861 23137 ft 440 kts 299°
2026-04-24 23:03 24.72929 56.69004 22424 ft 436 kts 299°
2026-04-24 23:03 24.74509 56.66169 21762 ft 432 kts 300°
2026-04-24 23:04 24.76071 56.63353 21083 ft 428 kts 300°
2026-04-24 23:04 24.77608 56.60569 20435 ft 424 kts 300°
2026-04-24 23:04 24.79133 56.57799 19841 ft 422 kts 300°
2026-04-24 23:04 24.80652 56.55035 19105 ft 421 kts 300°
2026-04-24 23:05 24.82163 56.52281 18408 ft 419 kts 300°
2026-04-24 23:05 24.83666 56.49541 17663 ft 417 kts 300°
2026-04-24 23:05 24.85157 56.46820 16958 ft 413 kts 300°
2026-04-24 23:05 24.86636 56.44119 16270 ft 409 kts 301°
2026-04-24 23:06 24.87837 56.41309 15603 ft 404 kts 288°
2026-04-24 23:06 24.88352 56.38279 14929 ft 401 kts 275°
2026-04-24 23:06 24.88437 56.35259 14254 ft 398 kts 270°
2026-04-24 23:06 24.88336 56.32221 13568 ft 396 kts 267°
2026-04-24 23:07 24.88151 56.29215 12953 ft 389 kts 266°
2026-04-24 23:07 24.88250 56.26255 12321 ft 384 kts 279°
2026-04-24 23:07 24.88874 56.23452 12143 ft 367 kts 287°
2026-04-24 23:07 24.89667 56.20804 11615 ft 362 kts 288°
2026-04-24 23:08 24.90510 56.18176 10801 ft 365 kts 289°
2026-04-24 23:08 24.91399 56.15566 10286 ft 360 kts 290°
2026-04-24 23:08 24.92277 56.13072 10066 ft 345 kts 290°
2026-04-24 23:08 24.93132 56.10679 10013 ft 326 kts 290°
2026-04-24 23:09 24.93942 56.08424 10022 ft 306 kts 290°
2026-04-24 23:09 24.94707 56.06306 10023 ft 291 kts 291°
2026-04-24 23:09 24.95456 56.04243 10027 ft 289 kts 290°
2026-04-24 23:09 24.96202 56.02186 10027 ft 288 kts 291°
2026-04-24 23:10 24.96942 56.00152 9828 ft 283 kts 291°
2026-04-24 23:10 24.97677 55.98135 9342 ft 284 kts 291°
2026-04-24 23:10 24.98413 55.96111 8904 ft 284 kts 291°
2026-04-24 23:10 24.99147 55.94093 8565 ft 283 kts 291°
2026-04-24 23:11 24.99877 55.92083 8240 ft 282 kts 291°
2026-04-24 23:11 25.00606 55.90079 7971 ft 280 kts 291°
2026-04-24 23:11 25.01331 55.88082 7722 ft 279 kts 291°
2026-04-24 23:11 25.02044 55.86119 7499 ft 277 kts 291°
2026-04-24 23:12 25.02756 55.84156 7079 ft 275 kts 291°
2026-04-24 23:12 25.03475 55.82175 6677 ft 274 kts 291°
2026-04-24 23:12 25.04175 55.80244 6345 ft 273 kts 291°
2026-04-24 23:12 25.04881 55.78294 6044 ft 272 kts 291°
2026-04-24 23:13 25.05583 55.76355 5731 ft 272 kts 291°
2026-04-24 23:13 25.06282 55.74416 5405 ft 271 kts 291°
2026-04-24 23:13 25.06970 55.72513 5252 ft 260 kts 292°
2026-04-24 23:13 25.07617 55.70724 5124 ft 248 kts 292°
2026-04-24 23:14 25.08243 55.68997 4989 ft 237 kts 292°
2026-04-24 23:14 25.08839 55.67347 4865 ft 225 kts 291°
2026-04-24 23:14 25.09406 55.65775 4735 ft 215 kts 292°
2026-04-24 23:14 25.09946 55.64285 4631 ft 203 kts 292°
2026-04-24 23:15 25.10575 55.62931 4479 ft 195 kts 302°
2026-04-24 23:15 25.11342 55.61693 4300 ft 195 kts 303°
2026-04-24 23:15 25.12067 55.60424 4100 ft 195 kts 302°
2026-04-24 23:15 25.12741 55.59132 3904 ft 191 kts 300°
2026-04-24 23:16 25.13392 55.57898 3663 ft 185 kts 302°
2026-04-24 23:16 25.14068 55.56691 3419 ft 186 kts 302°
2026-04-24 23:16 25.14751 55.55471 3204 ft 186 kts 302°
2026-04-24 23:16 25.15425 55.54252 2962 ft 186 kts 302°
2026-04-24 23:17 25.16096 55.53039 2711 ft 183 kts 303°
2026-04-24 23:17 25.16738 55.51876 2470 ft 170 kts 303°
2026-04-24 23:17 25.17338 55.50787 2280 ft 164 kts 303°
2026-04-24 23:17 25.17928 55.49726 2066 ft 163 kts 303°
2026-04-24 23:18 25.18519 55.48661 1862 ft 163 kts 303°
2026-04-24 23:18 25.19112 55.47593 1650 ft 163 kts 303°
2026-04-24 23:18 25.19702 55.46528 1439 ft 159 kts 303°
2026-04-24 23:18 25.20255 55.45518 1212 ft 149 kts 302°
2026-04-24 23:19 25.20772 55.44563 1001 ft 140 kts 302°
2026-04-24 23:19 25.21273 55.43655 819 ft 138 kts 302°
2026-04-24 23:19 25.21780 55.42751 680 ft 139 kts 302°
2026-04-24 23:19 25.22287 55.41831 542 ft 142 kts 301°
2026-04-24 23:20 25.22806 55.40899 361 ft 142 kts 302°
2026-04-24 23:20 25.23320 55.39973 169 ft 142 kts 302°
2026-04-24 23:20 25.23837 55.39040 37 ft 139 kts 302°
2026-04-24 23:20 25.24276 55.38249 33 ft 91 kts 301°
2026-04-24 23:21 25.24477 55.37887 31 ft 41 kts 301°
2026-04-24 23:21 25.24593 55.37605 28 ft 40 kts 284°
2026-04-24 23:21 25.24617 55.37331 28 ft 22 kts 275°
2026-04-24 23:21 25.24656 55.37206 28 ft 15 kts 300°
2026-04-24 23:22 25.24703 55.37120 28 ft 14 kts 303°
2026-04-24 23:22 25.24754 55.37030 28 ft 10 kts 301°
2026-04-24 23:22 25.24765 55.37006 28 ft 4 kts 294°
2026-04-24 23:22 25.24765 55.36966 28 ft 6 kts 251°
2026-04-24 23:23 25.24764 55.36965 28 ft 0 kts 248°
2026-04-24 23:23 25.24733 55.36930 28 ft 15 kts 218°
2026-04-24 23:23 25.24628 55.36865 27 ft 19 kts 211°
2026-04-24 23:23 25.24510 55.36787 27 ft 21 kts 211°
2026-04-24 23:24 25.24394 55.36725 27 ft 16 kts 168°
2026-04-24 23:24 25.24325 55.36818 27 ft 17 kts 121°
2026-04-24 23:24 25.24257 55.36936 27 ft 19 kts 122°
2026-04-24 23:24 25.24206 55.37030 27 ft 9 kts 118°
2026-04-24 23:25 25.24217 55.37059 27 ft 7 kts 45°
2026-04-24 23:25 25.24268 55.37095 27 ft 6 kts 30°
2026-04-24 23:25 25.24278 55.37101 27 ft 0 kts 31°